Weather History for Madisonville, KY

Change the Weather History Date:

Monday, December 2, 2013

  Actual Average (KOWB) Record (KOWB)
Temperature  
Mean Temperature 47 °F -  
Max Temperature 59 °F 49 °F 76 °F (1982)
Min Temperature 35 °F 32 °F 12 °F (1937)
Degree Days  
Heating Degree Days 18    
Moisture  
Dew Point 42 °F    
Average Humidity 83    
Maximum Humidity 100    
Minimum Humidity 61    
Precipitation  
Precipitation 0.00 in - - ()
Sea Level Pressure  
Sea Level Pressure 29.82 in    
Wind  
Wind Speed 1 mph (South)    
Max Wind Speed 7 mph    
Max Gust Speed -    
Visibility 9 miles    
Events      
Averages and records for this station are not official NWS values.
T = Trace of Precipitation, MM = Missing Value Source: NWS Daily Summary

Daily Weather History Graph

Daily Weather History Graph

Search for Another Location

Airport:

Trip Planner

Search our weather history database for the weather conditions in past years. The results will help you decide how hot, cold, wet, or windy it might be!

Date:

Astronomy

Dec. 02, 2013 Rise Set
Actual Time 6:46 AM CST 4:31 PM CST
Civil Twilight 6:17 AM CST 5:00 PM CST
Nautical Twilight 5:45 AM CST 5:32 PM CST
Astronomical Twilight 5:13 AM CST 6:04 PM CST
Moon 6:11 AM CST (12/2) 4:33 PM CST (12/2)
Length of Visible Light 10h 43m
Length of Day
9h 45m
Waning Crescent, 0% of the Moon is Illuminated
Dec 2
Waning Crescent
Dec 2
New
Dec 9
First Quarter
Dec 17
Full
Dec 25
Last Quarter

Hourly Weather History & Observations

Time (CST) Temp. Windchill Dew Point Humidity Pressure Visibility Wind Dir Wind Speed Gust Speed Precip Events Conditions
12:15 AM 41.0 °F - 37.0 °F 86% 29.94 in 10.0 mi Calm Calm - N/A   Mostly Cloudy
12:35 AM 39.7 °F - 36.7 °F 89% 29.93 in 10.0 mi Calm Calm - N/A   Mostly Cloudy
12:55 AM 39.6 °F - 36.3 °F 88% 29.92 in 10.0 mi Calm Calm - N/A   Overcast
1:15 AM 39.4 °F - 36.5 °F 89% 29.92 in 10.0 mi Calm Calm - N/A   Overcast
1:35 AM 39.2 °F - 36.5 °F 90% 29.91 in 10.0 mi Calm Calm - N/A   Overcast
1:55 AM 39.2 °F - 36.3 °F 89% 29.92 in 10.0 mi Calm Calm - N/A   Overcast
2:15 AM 37.9 °F - 36.7 °F 95% 29.92 in 10.0 mi Calm Calm - N/A   Overcast
2:35 AM 39.9 °F - 38.3 °F 94% 29.91 in 10.0 mi Calm Calm - N/A   Overcast
2:55 AM 39.7 °F - 37.9 °F 93% 29.91 in 10.0 mi Calm Calm - N/A   Overcast
3:15 AM 39.6 °F - 37.6 °F 93% 29.90 in 10.0 mi Calm Calm - N/A   Overcast
3:35 AM 39.6 °F - 37.9 °F 94% 29.90 in 10.0 mi Calm Calm - N/A   Overcast
3:55 AM 38.7 °F - 37.8 °F 97% 29.89 in 10.0 mi Calm Calm - N/A   Overcast
4:15 AM 39.4 °F - 38.3 °F 96% 29.89 in 10.0 mi Calm Calm - N/A   Overcast
4:35 AM 40.3 °F - 38.5 °F 93% 29.88 in 10.0 mi Calm Calm - N/A   Overcast
4:55 AM 39.4 °F - 37.9 °F 95% 29.88 in 10.0 mi Calm Calm - N/A   Overcast
5:15 AM 39.4 °F - 38.5 °F 97% 29.88 in 10.0 mi Calm Calm - N/A   Overcast
5:35 AM 39.7 °F - 38.7 °F 96% 29.87 in 10.0 mi Calm Calm - N/A   Overcast
5:55 AM 39.4 °F - 38.3 °F 96% 29.87 in 10.0 mi Calm Calm - N/A   Mostly Cloudy
6:15 AM 38.7 °F - 38.3 °F 99% 29.87 in 10.0 mi Calm Calm - N/A   Scattered Clouds
6:35 AM 35.8 °F - 35.4 °F 99% 29.87 in 7.0 mi Calm Calm - N/A   Clear
6:55 AM 36.7 °F - 36.7 °F 100% 29.87 in 7.0 mi Calm Calm - N/A   Clear
7:15 AM 36.5 °F - 36.5 °F 100% 29.87 in 7.0 mi Calm Calm - N/A   Clear
7:35 AM 35.1 °F - 35.1 °F 100% 29.87 in 4.0 mi Calm Calm - N/A   Clear
7:55 AM 36.1 °F - 36.1 °F 100% 29.86 in 10.0 mi Calm Calm - N/A   Clear
8:15 AM 39.4 °F - 39.0 °F 99% 29.86 in 10.0 mi Calm Calm - N/A   Clear
8:35 AM 41.9 °F - 40.3 °F 94% 29.87 in 10.0 mi Calm Calm - N/A   Clear
8:55 AM 43.5 °F - 41.2 °F 91% 29.86 in 10.0 mi Calm Calm - N/A   Mostly Cloudy
9:15 AM 46.6 °F - 41.7 °F 83% 29.87 in 10.0 mi Calm Calm - N/A   Scattered Clouds
9:35 AM 49.8 °F - 42.3 °F 75% 29.87 in 10.0 mi Calm Calm - N/A   Mostly Cloudy
9:55 AM 51.3 °F - 42.6 °F 72% 29.86 in 10.0 mi South 4.6 mph - N/A   Overcast
10:15 AM 52.9 °F - 43.7 °F 71% 29.86 in 10.0 mi SSW 4.6 mph - N/A   Mostly Cloudy
10:35 AM 53.6 °F - 43.3 °F 68% 29.85 in 10.0 mi SSW 3.5 mph - N/A   Mostly Cloudy
10:55 AM 55.0 °F - 43.9 °F 66% 29.84 in 10.0 mi Calm Calm - N/A   Mostly Cloudy
11:15 AM 56.1 °F - 44.4 °F 65% 29.83 in 10.0 mi SSE 3.5 mph - N/A   Overcast
11:35 AM 56.3 °F - 44.2 °F 64% 29.82 in 10.0 mi Calm Calm - N/A   Overcast
11:55 AM 57.2 °F - 44.6 °F 63% 29.80 in 10.0 mi South 5.8 mph - N/A   Scattered Clouds
12:15 PM 57.2 °F - 44.8 °F 63% 29.79 in 10.0 mi SSW 6.9 mph - N/A   Scattered Clouds
12:35 PM 57.9 °F - 45.1 °F 62% 29.78 in 10.0 mi South 5.8 mph - N/A   Clear
12:55 PM 58.5 °F - 45.1 °F 61% 29.78 in 10.0 mi South 4.6 mph - N/A   Scattered Clouds
1:15 PM 58.5 °F - 45.5 °F 62% 29.77 in 10.0 mi SSE 4.6 mph - N/A   Scattered Clouds
1:35 PM 59.4 °F - 46.0 °F 61% 29.76 in 10.0 mi South 4.6 mph - N/A   Clear
1:55 PM 59.2 °F - 46.0 °F 62% 29.75 in 10.0 mi SSW 6.9 mph - N/A   Scattered Clouds
2:15 PM 59.2 °F - 46.4 °F 63% 29.75 in 10.0 mi South 4.6 mph - N/A   Scattered Clouds
2:35 PM 59.7 °F - 46.6 °F 62% 29.74 in 10.0 mi South 5.8 mph - N/A   Scattered Clouds
2:55 PM 59.0 °F - 46.4 °F 63% 29.74 in 10.0 mi South 5.8 mph - N/A   Clear
3:15 PM 58.6 °F - 46.4 °F 64% 29.75 in 10.0 mi South 5.8 mph - N/A   Clear
3:35 PM 58.1 °F - 46.6 °F 65% 29.75 in 10.0 mi South 5.8 mph - N/A   Clear
3:55 PM 57.4 °F - 46.6 °F 67% 29.75 in 10.0 mi SSW 3.5 mph - N/A   Clear
4:15 PM 56.3 °F - 46.4 °F 69% 29.76 in 10.0 mi Calm Calm - N/A   Scattered Clouds
4:35 PM 55.8 °F - 46.4 °F 71% 29.76 in 10.0 mi Calm Calm - N/A   Scattered Clouds
4:55 PM 54.5 °F - 46.4 °F 74% 29.76 in 10.0 mi Calm Calm - N/A   Overcast
5:15 PM 54.0 °F - 46.4 °F 76% 29.77 in 10.0 mi Calm Calm - N/A   Overcast
5:35 PM 53.4 °F - 46.0 °F 76% 29.76 in 10.0 mi Calm Calm - N/A   Overcast
5:55 PM 53.4 °F - 46.2 °F 77% 29.77 in 10.0 mi Calm Calm - N/A   Overcast
6:15 PM 54.0 °F - 46.0 °F 75% 29.77 in 10.0 mi SSE 3.5 mph - N/A   Overcast
6:35 PM 54.5 °F - 46.0 °F 73% 29.77 in 10.0 mi SSE 4.6 mph - N/A   Overcast
6:55 PM 52.9 °F - 45.7 °F 77% 29.77 in 10.0 mi South 4.6 mph - N/A   Mostly Cloudy
7:15 PM 52.3 °F - 45.7 °F 78% 29.77 in 10.0 mi South 5.8 mph - N/A   Mostly Cloudy
7:35 PM 51.8 °F - 45.7 °F 80% 29.78 in 10.0 mi SSE 4.6 mph - N/A   Scattered Clouds
7:55 PM 51.1 °F - 45.7 °F 82% 29.78 in 10.0 mi SSE 3.5 mph - N/A   Mostly Cloudy
8:15 PM 51.8 °F - 46.4 °F 82% 29.78 in 10.0 mi SSE 3.5 mph - N/A   Overcast
8:35 PM 50.9 °F - 46.0 °F 83% 29.78 in 10.0 mi Calm Calm - N/A   Overcast
8:55 PM 50.0 °F - 46.0 °F 86% 29.79 in 10.0 mi SSE 3.5 mph - N/A   Overcast
9:15 PM 48.4 °F - 45.1 °F 89% 29.78 in 10.0 mi SSE 3.5 mph - N/A   Overcast
9:35 PM 47.8 °F - 44.8 °F 89% 29.79 in 10.0 mi Calm Calm - N/A   Overcast
9:55 PM 47.5 °F - 46.0 °F 95% 29.80 in 7.0 mi Calm Calm - N/A   Mostly Cloudy
10:15 PM 45.9 °F 44.6 °F 45.1 °F 97% 29.80 in 7.0 mi South 3.5 mph - N/A   Scattered Clouds
10:35 PM 44.6 °F 43.1 °F 44.2 °F 99% 29.79 in 7.0 mi South 3.5 mph - N/A   Clear
10:55 PM 45.3 °F 43.0 °F 45.1 °F 99% 29.78 in 5.0 mi South 4.6 mph - N/A   Clear
11:15 PM 44.8 °F 42.4 °F 44.8 °F 100% 29.77 in 5.0 mi South 4.6 mph - N/A   Clear
11:35 PM 44.8 °F - 44.8 °F 100% 29.77 in 4.0 mi Calm Calm - N/A   Clear
11:55 PM 46.4 °F - 46.4 °F 100% 29.77 in 5.0 mi Calm Calm - N/A   Clear